Warning: Javascript must be enabled to use all the features on this page!


Page Loading - Please Wait...

Click to hideNews Bulletins

Peak Streamflow for the Nation

USGS 10344400 LITTLE TRUCKEE R AB BOCA RES NR TRUCKEE CA

Nevada County, California
Hydrologic Unit Code 16050102
Latitude  39°26'09", Longitude 120°05'00" NAD27
Drainage area 146  square miles
Gage datum 5,618.67 feet above NGVD29
Output formats
Table
Graph
Tab-separated file
peakfq (watstore) format
Reselect output format
Water
Year
Date Gage
Height
(feet)
Stream-
flow
(cfs)
1904 1904-04-14   1,8101,6
1905 1905-04-29   7601,6
1906 1906-05-11   1,3501,6
1907 1907-03-18   1,5601,6
1908 1908-04-21   5731,6
1909 1909-01-15   1,9201,6
1910 1910-03-19   1,2401,6
1940 1940-05-12   1,4401,6
1941 1941-05-25   1,1401,6
1942 1942-05-25   1,3801,6
1943 1943-05-02   9601,6
1944 1944-05-08   7881,6
1945 1945-05-04   1,0001,6
1946 1946-04-18   9351,6
1947 1947-02-12   5221,6
1948 1948-06-10   5991,6
1949 1949-05-14   7881,6
1950 1950-04-21   1,0401,6
1951 1950-11-20   5,0001,6
1952 1952-05-02   2,2001,6
1953 1953-05-19   6981,6
1954 1954-04-23   5281,6
1955 1955-05-08   5751,6
1956 1955-12-23   9,5002,6
1957 1957-05-18   1,1201,6
1958 1958-05-05 3.19 1,6506
1959 1959-01-12 1.88 3906
1960 1960-02-08 3.02 1,4306
1961 1961-06-06 1.76 3256
1962 1962-04-14 2.88 1,2906
1963 1963-02-01 9.00 13,3006
1964 1963-11-15 2.72 1,1006
1965 1964-12-23 6.95 10,5006
1966 1966-05-10 2.23 6066
1967 1967-05-21 3.78 2,8006
1968 1968-02-23 2.39 7276
1969 1969-04-23 3.392 2,0306
1970 1970-02-11 2.32 6966
1971 1971-09-11 2.23 6236
1972 1972-05-05 2.33 7046
1973 1973-04-26 2.10 5306
1974 1974-03-31 2.70 1,0606
1975 1975-06-16 2.65 1,0006
1976 1976-05-05 2.28 6646
1977 1977-08-19 1.31 1626
1978 1978-05-16 3.21 1,7406
1979 1979-05-13 3.00 1,4306
1980 1980-05-23 3.15 1,6506
1981 1981-05-18 3.22 1,7506
1982 1982-06-09 3.70 2,5906
1983 1983-01-13 3.82 2,8306
1984 1983-12-06 3.50 2,3706
1985 1985-04-29 2.90 1,3406
1986 1986-05-12 3.06 1,5106
1987 1987-05-01 2.91 1,3206
1988 1988-08-18 2.27 6766
1989 1989-06-15 1.86 3826
1990 1990-04-25 1.83 3766
1991 1991-05-08 1.64 2906
1992 1992-04-17 1.41 1966
1993 1993-06-26 2.00 4646
1994 1994-05-18 2.83 1,2206
1995 1995-07-28 2.47 8536
1996 1996-05-27 2.46 8256
1997 1997-01-03 5.26 3,8506
1998 1998-05-27 2.50 8926
1999 1999-04-22 2.45 8446
2000 2000-05-05 2.13 5756
2001 2001-05-09 1.56 2466
2002 2002-04-29 2.42 7976
2003 2003-04-15 1.69 3016
2004 2004-05-26 2.13 5536
2005 2005-04-05 1.59 2586
2006 2006-03-02 3.03 1,4706
2007 2007-05-17 2.30 6846
2008 2008-05-19 1.86 4016
2009 2009-03-21 1.49 2266
2010 2010-08-31 1.59 2736
2011 2011-06-24 2.57 9746
2012 2012-05-26 2.19 6346
2013 2013-05-06 1.96 4726
2014 2014-04-30 1.82 3886
2015 2015-02-08 1.39 1866
2016 2016-05-24 1.81 3836
2017 2017-05-06 2.94 1,4806
2018 2018-04-09 2.82 1,3206
2019 2019-04-25 2.85 1,3506
2020 2020-06-01   6166
?
  Peak Gage-Height Qualification Codes.
?
  Peak Streamflow Qualification Codes.